User: anonymous   Login
Location: Walnut Point State Park
(39.6958°N, 88.0345°W)
Time: 06:24:17
(UTC-06:00)
Language:

Iridium 75 - Orbit

View from above orbital plane
View from above orbital plane
View from above satellite
View from above satellite

Ground track
Ground track

The orbit data is extracted from the following two-line orbital elements,

1 25346U 98032E   15025.56971345  .00000114  00000-0  33573-4 0  1572
2 25346 086.3943 229.2314 0001983 105.5494 306.5656 14.34215464874450
Epoch (UTC): 25 January 2015 13:40:23
Eccentricity: 0.0001983
inclination: 86.3943°
perigee height: 776 km
apogee height: 779 km
right ascension of ascending node: 229.2314°
argument of perigee: 105.5494°
revolutions per day: 14.34215464
mean anomaly at epoch: 306.5656°
orbit number at epoch: 87445

The dashed part of the orbit path shows where the satellite is in the earth's shadow,  

DLR